星链-5623 (STARLINK-5623 )

导读 | 豆包AI

STARLINK-5623是美国太空探索技术公司星链互联网卫星项目的一员,于2023年1月31日发射升空,属于星链星座组网的第二代卫星。它旨在为全球提供低延迟、高速率的宽带互联网服务,尤其覆盖偏远与网络基础设施匮乏区域,依托近地轨道部署,助力星链完成全球卫星互联网组网建设。

基本信息
目录编号:
55405
目录名称:
STARLINK-5623
国际标识:
2023-014Q
轨道中心:
EARTH
卫星名称:
星链-5623
卫星全名:
星链-5623 (STARLINK-5623 )
卫星状态:
在轨 (已飞行1185 天)
发射日期:
2023-01-31 UTC
国别 :
美国 (US)
星等 :
--
轨道信息
数据来源 国际轨道数据 AOE轨道数据
星历时间 2026-04-30T05:20:16+0800
15小时前
查看轨道信息
2026-04-30T08:00:00+0800
12小时前
查看轨道信息
半长轴 6950.193km 6950.187km
偏心率 0.0003138 0.000362
轨道倾角 69.998° 69.999°
近地点辐角 268.346° 275.323°
升交点赤经 295.401° 295.119°
平近点角 91.734° 322.938°
近地点 569.875km 569.534km
远地点 574.237km 574.566km
周期 96.107分钟 96.107分钟
每日圈数 14.983301 14.983322
详细信息
固有亮度:
5
最大亮度:
2.5
卫星平台:
Starlink v1.5
覆盖范围:
全球
运营商:
太空探索技术公司
运营商所在国:
美国
制造商(研发单位):
太空探索技术公司
制造商所在国:
美国
使用方式:
暂无
卫星简介
星链(Starlink)计划是由太空探索技术公司(SpaceX)提出的一个巨型低轨卫星互联网星座项目,计划在2019年至2024年间在太空搭建由约1.2万颗卫星组成的“星链”网络,其中1584颗将部署在地球上空550千米处的近地轨道,并从2020年开始工作。该卫星仍在工作。
2D轨道图
3D轨道图
轨道高度分析图
轨道倾角分析图
轨道综合分析图
查看轨道综合分析图